Time,TemperatureF,DewpointF,PressureIn,WindDirection,WindDirectionDegrees,WindSpeedMPH,WindSpeedGustMPH,Humidity,HourlyPrecipIn,Conditions,Clouds,dailyrainin,SoftwareType,DateUTC
2013-03-06 00:02:00,35.0,27.0,-100.00,ENE,60,6.0,12.0,73,0.00,,,-99.99,,2013-03-06 05:02:00,
2013-03-06 00:11:00,35.0,27.0,-100.00,ENE,60,4.0,12.0,74,0.00,,,-99.99,,2013-03-06 05:11:00,
2013-03-06 00:22:00,35.0,27.0,-100.00,NE,50,4.0,12.0,74,0.00,,,-99.99,,2013-03-06 05:22:00,
2013-03-06 00:32:00,34.0,28.0,-100.00,NE,45,5.0,11.0,75,0.00,,,-99.99,,2013-03-06 05:32:00,
2013-03-06 00:42:00,34.0,28.0,-100.00,NE,55,7.0,12.0,76,0.00,,,-99.99,,2013-03-06 05:42:00,
2013-03-06 00:52:00,34.0,28.0,-100.00,NE,50,6.0,10.0,76,0.00,,,-99.99,,2013-03-06 05:52:00,
2013-03-06 01:02:00,34.0,28.0,-100.00,NE,55,4.0,11.0,76,0.00,,,-99.99,,2013-03-06 06:02:00,
2013-03-06 01:11:00,34.0,28.0,-100.00,NE,55,4.0,11.0,76,0.00,,,-99.99,,2013-03-06 06:11:00,
2013-03-06 01:22:00,34.0,28.0,-100.00,NE,45,3.0,9.0,77,0.00,,,-99.99,,2013-03-06 06:22:00,
2013-03-06 01:32:00,34.0,28.0,-100.00,ENE,60,4.0,12.0,77,0.00,,,-99.99,,2013-03-06 06:32:00,
2013-03-06 01:42:00,35.0,28.0,-100.00,ENE,60,7.0,12.0,76,0.00,,,-99.99,,2013-03-06 06:42:00,
2013-03-06 01:52:00,35.0,28.0,-100.00,NE,50,8.0,14.0,75,0.00,,,-99.99,,2013-03-06 06:52:00,
2013-03-06 02:01:00,35.0,28.0,-100.00,NE,50,7.0,14.0,75,0.00,,,-99.99,,2013-03-06 07:01:00,
2013-03-06 02:11:00,35.0,28.0,-100.00,NE,45,7.0,14.0,74,0.00,,,-99.99,,2013-03-06 07:11:00,
2013-03-06 02:22:00,35.0,28.0,-100.00,NE,55,8.0,14.0,73,0.00,,,-99.99,,2013-03-06 07:22:00,
2013-03-06 02:32:00,35.0,28.0,-100.00,ENE,75,7.0,14.0,72,0.00,,,-99.99,,2013-03-06 07:32:00,
2013-03-06 02:42:00,35.0,28.0,-100.00,ENE,65,4.0,13.0,72,0.00,,,-99.99,,2013-03-06 07:42:00,
2013-03-06 02:52:00,35.0,28.0,-100.00,NE,45,7.0,13.0,72,0.00,,,-99.99,,2013-03-06 07:52:00,
2013-03-06 03:01:00,35.0,28.0,-100.00,NE,45,6.0,15.0,72,0.00,,,-99.99,,2013-03-06 08:01:00,
2013-03-06 03:11:00,36.0,28.0,-100.00,ENE,65,7.0,14.0,72,0.00,,,-99.99,,2013-03-06 08:11:00,
2013-03-06 03:21:00,36.0,28.0,-100.00,ENE,70,7.0,14.0,72,0.00,,,-99.99,,2013-03-06 08:21:00,
2013-03-06 03:32:00,36.0,28.0,-100.00,ENE,75,7.0,11.0,72,0.00,,,-99.99,,2013-03-06 08:32:00,
2013-03-06 03:42:00,36.0,28.0,-100.00,NE,50,7.0,11.0,72,0.00,,,-99.99,,2013-03-06 08:42:00,
2013-03-06 03:52:00,36.0,28.0,-100.00,NE,55,6.0,13.0,73,0.00,,,-99.99,,2013-03-06 08:52:00,
2013-03-06 04:02:00,35.0,28.0,-100.00,NE,45,7.0,14.0,74,0.00,,,-99.99,,2013-03-06 09:02:00,
2013-03-06 04:12:00,35.0,28.0,-100.00,NE,55,7.0,11.0,74,0.00,,,-99.99,,2013-03-06 09:12:00,
2013-03-06 04:21:00,35.0,28.0,-100.00,ENE,60,6.0,10.0,74,0.00,,,-99.99,,2013-03-06 09:21:00,
2013-03-06 04:32:00,35.0,28.0,-100.00,NE,55,6.0,11.0,75,0.00,,,-99.99,,2013-03-06 09:32:00,
2013-03-06 04:42:00,35.0,29.0,-100.00,NE,55,8.0,14.0,76,0.00,,,-99.99,,2013-03-06 09:42:00,
2013-03-06 04:52:00,35.0,29.0,-100.00,ENE,70,6.0,16.0,77,0.00,,,-99.99,,2013-03-06 09:52:00,
2013-03-06 05:02:00,35.0,29.0,-100.00,ENE,75,6.0,9.0,78,0.00,,,-99.99,,2013-03-06 10:02:00,
2013-03-06 05:11:00,35.0,29.0,-100.00,ENE,60,5.0,9.0,79,0.00,,,-99.99,,2013-03-06 10:11:00,
2013-03-06 05:22:00,35.0,30.0,-100.00,ENE,70,9.0,15.0,79,0.00,,,-99.99,,2013-03-06 10:22:00,
2013-03-06 05:32:00,35.0,30.0,-100.00,ENE,75,6.0,15.0,79,0.00,,,-99.99,,2013-03-06 10:32:00,
2013-03-06 05:42:00,35.0,30.0,-100.00,East,80,7.0,11.0,79,0.00,,,-99.99,,2013-03-06 10:42:00,
2013-03-06 05:52:00,36.0,30.0,-100.00,NE,55,6.0,14.0,79,0.00,,,-99.99,,2013-03-06 10:52:00,
2013-03-06 06:02:00,36.0,30.0,-100.00,ENE,60,6.0,9.0,79,0.00,,,-99.99,,2013-03-06 11:02:00,
2013-03-06 06:11:00,36.0,30.0,-100.00,NE,55,7.0,11.0,79,0.00,,,-99.99,,2013-03-06 11:11:00,
2013-03-06 06:22:00,36.0,30.0,-100.00,ENE,70,6.0,11.0,79,0.00,,,-99.99,,2013-03-06 11:22:00,
2013-03-06 06:32:00,36.0,31.0,-100.00,ENE,75,10.0,19.0,80,0.00,,,-99.99,,2013-03-06 11:32:00,
2013-03-06 06:42:00,36.0,31.0,-100.00,ENE,70,6.0,17.0,82,0.00,,,-99.99,,2013-03-06 11:42:00,
2013-03-06 06:52:00,36.0,31.0,-100.00,NE,55,5.0,11.0,83,0.00,,,-99.99,,2013-03-06 11:52:00,
2013-03-06 07:02:00,36.0,31.0,-100.00,East,85,7.0,11.0,84,0.00,,,-99.99,,2013-03-06 12:02:00,
2013-03-06 07:11:00,36.0,31.0,-100.00,East,90,6.0,10.0,84,0.00,,,-99.99,,2013-03-06 12:11:00,
2013-03-06 07:22:00,36.0,31.0,-100.00,ENE,65,4.0,12.0,84,0.00,,,-99.99,,2013-03-06 12:22:00,
2013-03-06 07:33:00,36.0,31.0,-100.00,ENE,65,4.0,12.0,84,0.00,,,-99.99,,2013-03-06 12:33:00,
2013-03-06 07:42:00,36.0,31.0,-100.00,ENE,65,4.0,12.0,84,0.00,,,-99.99,,2013-03-06 12:42:00,
2013-03-06 07:52:00,36.0,32.0,-100.00,ENE,60,5.0,9.0,85,0.00,,,-99.99,,2013-03-06 12:52:00,
2013-03-06 08:02:00,36.0,32.0,-100.00,ENE,70,5.0,7.0,85,0.00,,,-99.99,,2013-03-06 13:02:00,
2013-03-06 08:12:00,36.0,32.0,-100.00,NE,50,4.0,9.0,84,0.00,,,-99.99,,2013-03-06 13:12:00,
2013-03-06 08:22:00,36.0,32.0,-100.00,NE,55,4.0,11.0,84,0.00,,,-99.99,,2013-03-06 13:22:00,
2013-03-06 08:32:00,35.0,31.0,-100.00,North,0,4.0,9.0,84,0.00,,,-99.99,,2013-03-06 13:32:00,
2013-03-06 08:42:00,34.0,31.0,-100.00,North,0,3.0,7.0,85,0.00,,,-99.99,,2013-03-06 13:42:00,
2013-03-06 08:52:00,34.0,31.0,-100.00,North,0,4.0,9.0,86,0.00,,,-99.99,,2013-03-06 13:52:00,
2013-03-06 09:02:00,35.0,31.0,-100.00,North,0,4.0,8.0,86,0.00,,,-99.99,,2013-03-06 14:02:00,
2013-03-06 09:11:00,35.0,31.0,-100.00,North,0,3.0,7.0,86,0.00,,,-99.99,,2013-03-06 14:11:00,
2013-03-06 09:22:00,36.0,32.0,-100.00,North,0,1.0,11.0,85,0.00,,,-99.99,,2013-03-06 14:22:00,
2013-03-06 09:32:00,37.0,32.0,-100.00,North,0,4.0,9.0,81,0.00,,,-99.99,,2013-03-06 14:32:00,
2013-03-06 09:42:00,37.0,32.0,-100.00,North,0,4.0,8.0,80,0.00,,,-99.99,,2013-03-06 14:42:00,
2013-03-06 09:52:00,39.0,32.0,-100.00,North,0,4.0,9.0,77,0.00,,,-99.99,,2013-03-06 14:52:00,
2013-03-06 10:02:00,39.0,32.0,-100.00,North,0,2.0,10.0,74,0.00,,,-99.99,,2013-03-06 15:02:00,
2013-03-06 10:11:00,40.0,32.0,-100.00,North,0,3.0,7.0,73,0.00,,,-99.99,,2013-03-06 15:11:00,
2013-03-06 10:22:00,40.0,32.0,-100.00,NNE,25,2.0,9.0,71,0.00,,,-99.99,,2013-03-06 15:22:00,
2013-03-06 10:32:00,41.0,32.0,-100.00,North,0,3.0,9.0,70,0.00,,,-99.99,,2013-03-06 15:32:00,
2013-03-06 10:42:00,40.0,31.0,-100.00,ENE,70,4.0,9.0,69,0.00,,,-99.99,,2013-03-06 15:42:00,
2013-03-06 10:52:00,41.0,31.0,-100.00,NE,50,4.0,9.0,68,0.00,,,-99.99,,2013-03-06 15:52:00,
2013-03-06 11:02:00,40.0,31.0,-100.00,ENE,60,3.0,12.0,68,0.00,,,-99.99,,2013-03-06 16:02:00,
2013-03-06 11:12:00,42.0,32.0,-100.00,ENE,75,2.0,10.0,66,0.00,,,-99.99,,2013-03-06 16:12:00,
2013-03-06 11:21:00,41.0,31.0,-100.00,NE,50,4.0,9.0,66,0.00,,,-99.99,,2013-03-06 16:21:00,
2013-03-06 11:32:00,43.0,32.0,-100.00,North,0,1.0,9.0,65,0.00,,,-99.99,,2013-03-06 16:32:00,
2013-03-06 11:42:00,43.0,31.0,-100.00,NE,45,1.0,6.0,64,0.00,,,-99.99,,2013-03-06 16:42:00,
2013-03-06 11:52:00,42.0,31.0,-100.00,North,0,1.0,12.0,63,0.00,,,-99.99,,2013-03-06 16:52:00,
2013-03-06 12:01:00,43.0,31.0,-100.00,North,0,1.0,6.0,63,0.00,,,-99.99,,2013-03-06 17:01:00,
2013-03-06 12:11:00,43.0,31.0,-100.00,North,0,7.0,11.0,63,0.00,,,-99.99,,2013-03-06 17:11:00,
2013-03-06 12:22:00,43.0,31.0,-100.00,North,0,2.0,12.0,63,0.00,,,-99.99,,2013-03-06 17:22:00,
2013-03-06 12:32:00,43.0,31.0,-100.00,North,0,2.0,8.0,63,0.00,,,-99.99,,2013-03-06 17:32:00,
2013-03-06 12:42:00,44.0,32.0,-100.00,NNW,330,1.0,7.0,62,0.00,,,-99.99,,2013-03-06 17:42:00,
2013-03-06 12:52:00,43.0,31.0,-100.00,North,0,6.0,9.0,61,0.00,,,-99.99,,2013-03-06 17:52:00,
2013-03-06 13:02:00,44.0,31.0,-100.00,North,350,6.0,9.0,61,0.00,,,-99.99,,2013-03-06 18:02:00,
2013-03-06 13:28:00,44.0,31.0,-100.00,NNW,340,1.0,6.0,60,0.00,,,-99.99,,2013-03-06 18:28:00,
2013-03-06 13:42:00,42.0,31.0,-100.00,ENE,75,1.0,6.0,64,0.00,,,-99.99,,2013-03-06 18:42:00,
2013-03-06 13:52:00,43.0,32.0,-100.00,NW,325,4.0,7.0,65,0.00,,,-99.99,,2013-03-06 18:52:00,
2013-03-06 14:02:00,42.0,32.0,-100.00,NNW,330,4.0,9.0,67,0.00,,,-99.99,,2013-03-06 19:02:00,
2013-03-06 14:11:00,43.0,33.0,-100.00,NNW,335,5.0,9.0,66,0.00,,,-99.99,,2013-03-06 19:11:00,
2013-03-06 14:22:00,44.0,33.0,-100.00,NNW,335,4.0,6.0,65,0.00,,,-99.99,,2013-03-06 19:22:00,
2013-03-06 14:32:00,46.0,34.0,-100.00,NW,320,3.0,8.0,62,0.00,,,-99.99,,2013-03-06 19:32:00,
2013-03-06 14:43:00,48.0,34.0,-100.00,North,0,6.0,9.0,59,0.00,,,-99.99,,2013-03-06 19:43:00,
2013-03-06 14:52:00,44.0,32.0,-100.00,NW,315,7.0,13.0,63,0.00,,,-99.99,,2013-03-06 19:52:00,
2013-03-06 15:02:00,43.0,32.0,-100.00,NNW,335,6.0,12.0,65,0.00,,,-99.99,,2013-03-06 20:02:00,
2013-03-06 15:12:00,43.0,32.0,-100.00,NW,320,5.0,10.0,66,0.00,,,-99.99,,2013-03-06 20:12:00,
2013-03-06 15:22:00,41.0,31.0,-100.00,NNW,340,9.0,16.0,65,0.00,,,-99.99,,2013-03-06 20:22:00,
2013-03-06 15:32:00,41.0,30.0,-100.00,NNW,335,7.0,13.0,65,0.00,,,-99.99,,2013-03-06 20:32:00,
2013-03-06 15:42:00,40.0,29.0,-100.00,North,0,7.0,16.0,65,0.00,,,-99.99,,2013-03-06 20:42:00,
2013-03-06 15:52:00,41.0,30.0,-100.00,NNW,330,7.0,11.0,65,0.00,,,-99.99,,2013-03-06 20:52:00,
2013-03-06 16:02:00,41.0,30.0,-100.00,NW,325,5.0,12.0,64,0.00,,,-99.99,,2013-03-06 21:02:00,
2013-03-06 16:12:00,41.0,30.0,-100.00,NNW,330,7.0,11.0,63,0.00,,,-99.99,,2013-03-06 21:12:00,
2013-03-06 16:22:00,41.0,30.0,-100.00,NW,320,8.0,13.0,65,0.00,,,-99.99,,2013-03-06 21:22:00,
2013-03-06 16:32:00,42.0,31.0,-100.00,NW,320,2.0,11.0,66,0.00,,,-99.99,,2013-03-06 21:32:00,
2013-03-06 16:42:00,42.0,31.0,-100.00,NNW,335,5.0,9.0,64,0.00,,,-99.99,,2013-03-06 21:42:00,
2013-03-06 16:51:00,42.0,30.0,-100.00,NW,325,3.0,11.0,63,0.00,,,-99.99,,2013-03-06 21:51:00,
2013-03-06 17:02:00,42.0,30.0,-100.00,NNW,340,6.0,12.0,62,0.00,,,-99.99,,2013-03-06 22:02:00,
2013-03-06 17:11:00,42.0,29.0,-100.00,North,0,6.0,11.0,61,0.00,,,-99.99,,2013-03-06 22:11:00,
2013-03-06 17:22:00,41.0,29.0,-100.00,North,0,6.0,11.0,62,0.00,,,-99.99,,2013-03-06 22:22:00,
2013-03-06 17:32:00,41.0,29.0,-100.00,North,0,7.0,15.0,63,0.00,,,-99.99,,2013-03-06 22:32:00,
2013-03-06 17:42:00,40.0,29.0,-100.00,North,0,6.0,12.0,64,0.00,,,-99.99,,2013-03-06 22:42:00,
2013-03-06 17:51:00,40.0,29.0,-100.00,North,0,6.0,10.0,65,0.00,,,-99.99,,2013-03-06 22:51:00,
2013-03-06 18:01:00,39.0,29.0,-100.00,North,0,6.0,11.0,66,0.00,,,-99.99,,2013-03-06 23:01:00,
2013-03-06 18:11:00,39.0,29.0,-100.00,NNW,340,7.0,11.0,67,0.00,,,-99.99,,2013-03-06 23:11:00,
2013-03-06 18:21:00,38.0,29.0,-100.00,North,0,6.0,11.0,68,0.00,,,-99.99,,2013-03-06 23:21:00,
2013-03-06 18:32:00,38.0,29.0,-100.00,North,0,4.0,9.0,70,0.00,,,-99.99,,2013-03-06 23:32:00,
2013-03-06 18:42:00,37.0,29.0,-100.00,North,0,4.0,8.0,72,0.00,,,-99.99,,2013-03-06 23:42:00,
2013-03-06 18:52:00,37.0,29.0,-100.00,North,0,5.0,9.0,74,0.00,,,-99.99,,2013-03-06 23:52:00,
2013-03-06 19:02:00,36.0,29.0,-100.00,NNW,345,5.0,10.0,75,0.00,,,-99.99,,2013-03-07 00:02:00,
2013-03-06 19:11:00,36.0,30.0,-100.00,North,0,4.0,9.0,77,0.00,,,-99.99,,2013-03-07 00:11:00,
2013-03-06 19:21:00,35.0,29.0,-100.00,North,0,2.0,6.0,79,0.00,,,-99.99,,2013-03-07 00:21:00,
2013-03-06 19:32:00,35.0,30.0,-100.00,North,350,3.0,5.0,80,0.00,,,-99.99,,2013-03-07 00:32:00,
2013-03-06 19:42:00,34.0,29.0,-100.00,North,0,2.0,4.0,82,0.00,,,-99.99,,2013-03-07 00:42:00,
2013-03-06 19:52:00,35.0,30.0,-100.00,North,0,4.0,9.0,83,0.00,,,-99.99,,2013-03-07 00:52:00,
2013-03-06 20:01:00,34.0,30.0,-100.00,North,0,6.0,9.0,85,0.00,,,-99.99,,2013-03-07 01:01:00,
2013-03-06 20:11:00,34.0,30.0,-100.00,North,0,6.0,12.0,86,0.00,,,-99.99,,2013-03-07 01:11:00,
2013-03-06 20:21:00,34.0,30.0,-100.00,North,0,2.0,10.0,87,0.00,,,-99.99,,2013-03-07 01:21:00,
2013-03-06 20:32:00,34.0,31.0,-100.00,North,0,3.0,9.0,88,0.00,,,-99.99,,2013-03-07 01:32:00,
2013-03-06 20:42:00,34.0,31.0,-100.00,North,0,4.0,9.0,89,0.00,,,-99.99,,2013-03-07 01:42:00,
2013-03-06 20:51:00,33.0,31.0,-100.00,North,5,1.0,5.0,89,0.00,,,-99.99,,2013-03-07 01:51:00,
2013-03-06 21:01:00,33.0,30.0,-100.00,North,10,1.0,4.0,89,0.00,,,-99.99,,2013-03-07 02:01:00,
2013-03-06 21:11:00,33.0,30.0,-100.00,North,10,0.0,1.0,89,0.00,,,-99.99,,2013-03-07 02:11:00,
2013-03-06 21:21:00,32.0,30.0,-100.00,NNE,20,0.0,0.0,89,0.00,,,-99.99,,2013-03-07 02:21:00,
2013-03-06 21:32:00,33.0,30.0,-100.00,South,170,0.0,1.0,90,0.00,,,-99.99,,2013-03-07 02:32:00,
2013-03-06 21:41:00,33.0,30.0,-100.00,South,170,0.0,1.0,90,0.00,,,-99.99,,2013-03-07 02:41:00,
2013-03-06 21:51:00,33.0,30.0,-100.00,South,170,0.0,1.0,90,0.00,,,-99.99,,2013-03-07 02:51:00,
2013-03-06 22:02:00,32.0,29.0,-100.00,WNW,285,1.0,2.0,91,0.00,,,-99.99,,2013-03-07 03:02:00,
2013-03-06 22:11:00,32.0,29.0,-100.00,WNW,290,1.0,4.0,91,0.00,,,-99.99,,2013-03-07 03:11:00,
2013-03-06 22:21:00,32.0,30.0,-100.00,WNW,285,1.0,4.0,91,0.00,,,-99.99,,2013-03-07 03:21:00,
2013-03-06 22:32:00,32.0,30.0,-100.00,West,280,2.0,4.0,92,0.00,,,-99.99,,2013-03-07 03:32:00,
2013-03-06 22:42:00,33.0,31.0,-100.00,WSW,255,3.0,6.0,92,0.00,,,-99.99,,2013-03-07 03:42:00,
2013-03-06 22:52:00,32.0,31.0,-100.00,West,280,2.0,6.0,93,0.00,,,-99.99,,2013-03-07 03:52:00,
2013-03-06 23:02:00,32.0,31.0,-100.00,WNW,290,3.0,6.0,93,0.00,,,-99.99,,2013-03-07 04:02:00,
2013-03-06 23:11:00,32.0,31.0,-100.00,West,265,4.0,6.0,93,0.00,,,-99.99,,2013-03-07 04:11:00,
2013-03-06 23:22:00,32.0,31.0,-100.00,West,275,4.0,6.0,94,0.00,,,-99.99,,2013-03-07 04:22:00,
2013-03-06 23:32:00,32.0,31.0,-100.00,West,275,4.0,6.0,94,0.00,,,-99.99,,2013-03-07 04:32:00,
2013-03-06 23:42:00,32.0,31.0,-100.00,West,260,3.0,4.0,94,0.00,,,-99.99,,2013-03-07 04:42:00,
2013-03-06 23:52:00,32.0,31.0,-100.00,West,265,2.0,4.0,95,0.00,,,-99.99,,2013-03-07 04:52:00,